Location: Utrecht
(52.0907°N, 5.1214°E)
Time: 10:02:44
(UTC+02:00)

MOZHAYETS 4 - Pass Details

Date: 08 July 2022
Orbit: 660 x 679 km, 98.2° (Epoch: 09 August)

Event Time Altitude Azimuth Distance (km) Brightness Sun altitude
Exits shadow 03:34:06 - 156° (SSE) 2,617 10.4 -11.7°
Reaches altitude 10° 03:35:22 10° 155° (SSE) 2,103 9.9 -11.6°
Maximum altitude 03:39:56 72° 72° (ENE) 712 8.0 -11.3°
Drops below altitude 10° 03:44:31 10° 349° (N) 2,106 11.1 -10.9°
Sets 03:46:45 0° 347° (NNW) 3,021 11.9 -10.8°
